Regional Weather Roundup
Issued by NWS

Home | Current Version | Previous Version | Graphics & Text | Print | Product List | Glossary On
Versions: 1 2 3 4 5 6 7 8 9 10 11 12 13 14 15 16 17 18 19 20 21 22 23 24 25 26 27 28 29 30 31 32 33 34 35 36 37 38 39 40 41 42 43 44 45 46 47 48 49 50
000
ASUS43 KLSX 021710
RWRMO

WEATHER SUMMARY FOR MISSOURI
NATIONAL WEATHER SERVICE SPRINGFIELD MO
1100 AM CST FRI DEC 02 2016

NOTE: "FAIR" INDICATES FEW OR NO CLOUDS BELOW 12,000 FEET WITH NO
       SIGNIFICANT WEATHER AND/OR OBSTRUCTIONS TO VISIBILITY.
       CURRENT SKY AND/OR WEATHER CONDITIONS ARE NOT AVAILABLE FOR
       CHILLICOTHE AND FARMINGTON.

MOZ001>031-035>038-043-044-053-054-021800-
...NORTHERN AND WESTERN MISSOURI...

CITY           SKY/WX    TMP DP  RH WIND       PRES   REMARKS
KANSAS CTY INT MOSUNNY   43  27  53 NE5       30.28S
KANSAS C DTWN  SUNNY     43  30  60 CALM      30.29R
LEE`S SUMMIT   SUNNY     45  28  51 NE3       30.28R
ST JOSEPH      SUNNY     38  29  70 CALM      30.30S
CHILLICOTHE      N/A     40  31  70 SW5       30.31R
KIRKSVILLE     SUNNY     41  31  67 NW8       30.28R

$$
MOZ066>068-077>081-088>096-101>105-021800-
...SOUTHWEST MISSOURI...

CITY           SKY/WX    TMP DP  RH WIND       PRES   REMARKS
SPRINGFIELD    SUNNY     52  22  30 NE7       30.25R
JOPLIN         SUNNY     52  25  35 E9        30.25R
BRANSON        MOSUNNY   50  28  43 SE5       30.26R

$$
MOZ032>034-039>042-045>050-055>058-069>072-021800-
...CENTRAL MISSOURI...

CITY           SKY/WX    TMP DP  RH WIND       PRES   REMARKS
COLUMBIA       SUNNY     43  28  55 NW7       30.27S
JEFFERSON CITY SUNNY     42  30  62 W7        30.29R
ROLLA          SUNNY     47  27  45 MISG      30.25S
SEDALIA        SUNNY     46  28  49 N7        30.28S
WHITEMAN AFB   MOSUNNY   45  27  49 NE6       30.27R
WARRENSBURG    SUNNY     43  28  56 CALM      30.28F
OSAGE BEACH    SUNNY     49  25  39 CALM      30.28S

$$
MOZ051-052-059>065-021800-
...EAST CENTRAL MISSOURI...

CITY           SKY/WX    TMP DP  RH WIND       PRES   REMARKS
ST LOUIS INTL  MOSUNNY   44  29  55 NW10      30.27F
SPIRIT OF STL  MOSUNNY   46  30  53 N9        30.27F
ST CHARLES     SUNNY     42  30  62 NW7       30.27F

$$
MOZ072>076-082>087-097>100-106>115-021800-
...SOUTH CENTRAL AND SOUTHEAST MISSOURI...

CITY           SKY/WX    TMP DP  RH WIND       PRES   REMARKS
CAPE GIRARDEAU SUNNY     44  33  65 S3        30.29F
FARMINGTON     SUNNY     46  28  49 NW5       30.27S
POPLAR BLUFF   SUNNY     49  30  48 NE5       30.29S
WEST PLAINS    SUNNY     49  27  42 NE7       30.27S

$$




USA.gov is the U.S. government's official web portal to all federal, state and local government web resources and services.